CW1439 Weather Reports


time (UTC)temp
F
wind
direction
speed
knots
gust
knots
rain 1hr
in
rain 24hr
in
rain mn
in
humidity
%
barometer
mb
20260506051345 62 107 0.0 0.9 0.00 0.00 0.00 61 1008.7
20260506050840 62 107 0.0 0.9 0.00 0.00 0.00 62 1008.8
20260506050355 63 108 0.0 0.9 0.00 0.00 0.00 63 1008.7
20260506044838 64 8 0.0 1.7 0.00 0.00 0.00 58 1008.6
20260506044416 64 6 0.0 1.7 0.00 0.00 0.00 57 1008.5
20260506043851 64 271 0.0 0.0 0.00 0.00 0.00 56 1008.5
20260506043345 65 269 0.0 0.0 0.00 0.00 0.00 55 1008.5
20260506042856 65 267 0.0 0.0 0.00 0.00 0.00 54 1008.5
20260506042352 66 263 0.0 0.9 0.00 0.00 0.00 54 1008.5
20260506041848 66 212 0.0 1.7 0.00 0.00 0.00 53 1008.5
20260506041342 66 228 0.0 1.7 0.00 0.00 0.00 52 1008.5
20260506040841 66 267 0.0 2.6 0.00 0.00 0.00 52 1008.5
20260506040356 67 250 0.0 2.6 0.00 0.00 0.00 51 1008.5
20260506035910 67 250 0.0 2.6 0.00 0.00 0.00 51 1008.5
20260506035343 67 250 0.0 3.5 0.00 0.00 0.00 50 1008.5
20260506034843 67 198 0.9 3.5 0.00 0.00 0.00 50 1008.5
20260506034339 67 248 0.0 3.5 0.00 0.00 0.00 50 1008.4
20260506033856 66 273 0.0 3.5 0.00 0.00 0.00 51 1008.5
20260506033352 66 138 0.0 4.3 0.00 0.00 0.00 52 1008.5
20260506032849 66 124 0.9 4.3 0.00 0.00 0.00 52 1008.4
20260506032406 66 266 0.0 0.9 0.00 0.00 0.00 53 1008.4
20260506031840 66 269 0.0 0.9 0.00 0.00 0.00 52 1008.4
20260506031354 67 271 0.0 2.6 0.00 0.00 0.00 52 1008.4
20260506030910 68 267 0.0 2.6 0.00 0.00 0.00 49 1008.4
20260506030345 68 239 0.0 0.9 0.00 0.00 0.00 50 1008.4
20260506025840 68 278 0.0 5.2 0.00 0.00 0.00 49 1008.4
20260506025338 68 250 0.9 5.2 0.00 0.00 0.00 48 1008.3
20260506024854 68 236 0.0 3.5 0.00 0.00 0.00 49 1008.4
20260506024351 68 236 0.0 3.5 0.00 0.00 0.00 49 1008.4
20260506023848 68 243 0.0 0.9 0.00 0.00 0.00 49 1008.4
20260506023341 68 131 0.0 0.9 0.00 0.00 0.00 48 1008.4
20260506022856 68 128 0.0 3.5 0.00 0.00 0.00 48 1008.5
20260506022353 68 134 0.0 3.5 0.00 0.00 0.00 49 1008.5
20260506021850 68 298 0.0 1.7 0.00 0.00 0.00 49 1008.4
20260506021404 69 295 0.0 2.6 0.00 0.00 0.00 48 1008.4
20260506020846 69 235 0.0 1.7 0.00 0.00 0.00 49 1008.3
20260506020342 69 234 0.0 0.9 0.00 0.00 0.00 48 1008.3
20260506015838 70 233 0.0 2.6 0.00 0.00 0.00 47 1008.3
20260506015357 70 236 0.0 2.6 0.00 0.00 0.00 47 1008.3
20260506014912 70 200 0.9 3.5 0.00 0.00 0.00 47 1008.3
20260506014347 71 267 0.0 4.3 0.00 0.00 0.00 46 1008.3
20260506013843 71 239 0.9 4.3 0.00 0.00 0.00 45 1008.3
20260506013418 71 259 1.7 6.1 0.00 0.00 0.00 45 1008.2
20260506012913 71 229 0.9 6.1 0.00 0.00 0.00 46 1008.1
20260506012348 71 110 1.7 6.1 0.00 0.00 0.00 45 1008.0
20260506011842 72 227 0.0 6.1 0.00 0.00 0.00 45 1008.0
20260506011341 72 280 0.0 2.6 0.00 0.00 0.00 45 1007.9
20260506010838 72 9 0.0 3.5 0.00 0.00 0.00 44 1007.8
20260506010353 72 245 0.0 3.5 0.00 0.00 0.00 44 1007.8
20260506005849 72 274 0.0 4.3 0.00 0.00 0.00 44 1007.7
20260506005345 73 233 0.0 4.3 0.00 0.00 0.00 44 1007.6
20260506004842 73 256 0.0 4.3 0.00 0.00 0.00 43 1007.6
20260506004338 73 222 0.0 4.3 0.00 0.00 0.00 42 1007.5
20260506003853 73 243 0.0 6.1 0.00 0.00 0.00 42 1007.4
20260506003351 74 257 0.9 6.1 0.00 0.00 0.00 41 1007.4
20260506002846 74 245 0.0 4.3 0.00 0.00 0.00 41 1007.4
20260506002347 74 217 0.9 4.3 0.00 0.00 0.00 40 1007.4
20260506001845 75 228 0.0 3.5 0.00 0.00 0.00 40 1007.3
20260506001342 75 206 0.9 5.2 0.00 0.00 0.00 40 1007.3
20260506000855 75 260 0.0 7.0 0.00 0.00 0.00 39 1007.3
20260506000411 76 226 1.7 9.6 0.00 0.00 0.00 38 1007.2
20260505235845 76 250 2.6 9.6 0.00 0.00 0.00 38 1007.2
20260505235340 76 236 0.0 7.8 0.00 0.00 0.00 38 1007.1
20260505234916 76 223 4.3 9.6 0.00 0.00 0.00 37 1007.0
20260505234351 77 238 3.5 9.6 0.00 0.00 0.00 38 1007.0
20260505233849 77 283 3.5 11.3 0.00 0.00 0.00 37 1007.1
20260505233345 77 236 4.3 12.2 0.00 0.00 0.00 38 1007.0
20260505232859 77 228 5.2 12.2 0.00 0.00 0.00 37 1006.9
20260505232354 77 219 0.9 9.6 0.00 0.00 0.00 38 1007.0
20260505231849 77 242 1.7 10.4 0.00 0.00 0.00 38 1006.9
20260505231347 78 243 3.5 10.4 0.00 0.00 0.00 38 1006.8
20260505230843 78 214 1.7 9.6 0.00 0.00 0.00 38 1006.8
20260505230401 78 235 2.6 7.0 0.00 0.00 0.00 39 1006.8
20260505225855 78 242 2.6 9.6 0.00 0.00 0.00 39 1006.8
20260505225506 79 234 0.0 9.6 0.00 0.00 0.00 39 1006.7
20260505224850 79 240 1.7 8.7 0.00 0.00 0.00 38 1006.7
20260505224348 79 226 0.9 10.4 0.00 0.00 0.00 39 1006.6
20260505223844 80 208 6.1 14.8 0.00 0.00 0.00 38 1006.7
20260505223340 80 239 7.0 14.8 0.00 0.00 0.00 36 1006.7
20260505222915 81 280 1.7 9.6 0.00 0.00 0.00 39 1006.8
20260505222350 81 245 3.5 9.6 0.00 0.00 0.00 38 1006.8
20260505221850 80 248 3.5 12.2 0.00 0.00 0.00 38 1006.8
20260505221348 80 219 3.5 12.2 0.00 0.00 0.00 39 1006.9
20260505220845 79 253 4.3 12.2 0.00 0.00 0.00 38 1006.9
20260505220342 80 201 5.2 12.2 0.00 0.00 0.00 38 1006.9
20260505215836 80 239 7.0 12.2 0.00 0.00 0.00 38 1006.8
20260505215353 80 239 5.2 15.6 0.00 0.00 0.00 38 1006.8
20260505214909 81 262 7.8 15.6 0.00 0.00 0.00 37 1006.8
20260505214343 81 119 4.3 17.4 0.00 0.00 0.00 38 1006.6
20260505213839 81 236 7.0 17.4 0.00 0.00 0.00 37 1006.6
20260505213356 82 228 1.7 13.9 0.00 0.00 0.00 37 1006.6
20260505212849 82 236 6.1 13.0 0.00 0.00 0.00 35 1006.6
20260505212345 82 201 5.2 12.2 0.00 0.00 0.00 36 1006.6
20260505211841 82 217 5.2 15.6 0.00 0.00 0.00 36 1006.6
20260505211338 81 240 8.7 15.6 0.00 0.00 0.00 36 1006.6
20260505210854 81 233 7.0 16.5 0.00 0.00 0.00 36 1006.5
20260505210353 82 250 7.8 18.2 0.00 0.00 0.00 36 1006.7
20260505205845 82 217 2.6 18.2 0.00 0.00 0.00 37 1006.6
20260505205345 82 297 4.3 18.2 0.00 0.00 0.00 37 1006.6
20260505204840 82 224 7.8 14.8 0.00 0.00 0.00 37 1006.5
20260505204338 81 278 4.3 14.8 0.00 0.00 0.00 38 1006.6
20260505203855 81 235 5.2 19.1 0.00 0.00 0.00 38 1006.6
20260505203352 81 224 7.8 19.1 0.00 0.00 0.00 38 1006.7
20260505202849 81 224 5.2 14.8 0.00 0.00 0.00 38 1006.6
20260505202344 81 233 7.0 14.8 0.00 0.00 0.00 38 1006.6
20260505201859 81 255 4.3 16.5 0.00 0.00 0.00 40 1006.8
20260505201416 81 225 6.1 16.5 0.00 0.00 0.00 39 1006.8
20260505200852 82 290 6.1 14.8 0.00 0.00 0.00 39 1006.7
20260505200349 82 239 6.1 14.8 0.00 0.00 0.00 39 1006.8
20260505195843 82 236 5.2 20.9 0.00 0.00 0.00 40 1006.8
20260505195340 82 194 6.1 20.9 0.00 0.00 0.00 39 1006.9
20260505194915 81 242 7.8 13.9 0.00 0.00 0.00 39 1006.9
20260505194351 81 239 6.1 13.9 0.00 0.00 0.00 38 1007.0
20260505193849 81 240 5.2 14.8 0.00 0.00 0.00 39 1006.9
20260505193345 81 248 7.0 13.9 0.00 0.00 0.00 39 1007.0
20260505192839 81 242 9.6 13.0 0.00 0.00 0.00 38 1007.2
20260505192356 82 359 3.5 13.0 0.00 0.00 0.00 39 1007.2
20260505191853 81 257 6.1 17.4 0.00 0.00 0.00 38 1007.2
20260505191354 81 128 7.8 17.4 0.00 0.00 0.00 39 1007.2
20260505190852 81 248 5.2 14.8 0.00 0.00 0.00 39 1007.3
20260505190348 81 217 7.8 17.4 0.00 0.00 0.00 38 1007.4
20260505185844 81 259 9.6 17.4 0.00 0.00 0.00 38 1007.5
20260505185341 81 241 7.0 16.5 0.00 0.00 0.00 38 1007.7
20260505184840 81 134 6.1 13.0 0.00 0.00 0.00 40 1007.5
20260505184336 81 335 1.7 13.0 0.00 0.00 0.00 41 1007.8
20260505183853 81 163 5.2 12.2 0.00 0.00 0.00 42 1007.7
20260505183410 81 243 5.2 13.9 0.00 0.00 0.00 41 1007.6
20260505182847 80 226 6.1 15.6 0.00 0.00 0.00 42 1007.7
20260505182342 81 255 6.1 15.6 0.00 0.00 0.00 40 1007.8
20260505181838 81 246 5.2 11.3 0.00 0.00 0.00 41 1007.8
20260505181356 81 241 2.6 13.0 0.00 0.00 0.00 42 1007.9
20260505180852 80 232 5.2 13.0 0.00 0.00 0.00 42 1008.0
20260505180346 80 240 6.1 13.0 0.00 0.00 0.00 41 1008.1
20260505175839 80 233 5.2 15.6 0.00 0.00 0.00 41 1008.2
20260505175356 80 143 4.3 15.6 0.00 0.00 0.00 43 1008.1
20260505174837 80 253 7.8 14.8 0.00 0.00 0.00 42 1008.1
20260505174410 80 232 4.3 14.8 0.00 0.00 0.00 43 1008.2
20260505173903 80 239 5.2 14.8 0.00 0.00 0.00 42 1008.2
20260505173343 80 267 4.3 11.3 0.00 0.00 0.00 43 1008.3
20260505172841 81 152 7.0 10.4 0.00 0.00 0.00 42 1008.3
20260505172337 80 226 6.1 15.6 0.00 0.00 0.00 41 1008.3
20260505171855 80 99 5.2 15.6 0.00 0.00 0.00 43 1008.2
20260505171411 80 243 4.3 13.0 0.00 0.00 0.00 43 1008.3
20260505170848 80 245 3.5 13.0 0.00 0.00 0.00 45 1008.4
20260505170343 80 239 4.3 13.9 0.00 0.00 0.00 45 1008.6
20260505165859 79 246 7.0 13.9 0.00 0.00 0.00 46 1008.6
20260505165355 79 221 1.7 10.4 0.00 0.00 0.00 46 1008.7
20260505164853 79 256 7.0 10.4 0.00 0.00 0.00 45 1008.8
20260505164408 79 249 3.5 12.2 0.00 0.00 0.00 47 1008.9
20260505163845 78 288 2.6 12.2 0.00 0.00 0.00 47 1009.0
20260505163341 79 284 7.0 11.3 0.00 0.00 0.00 46 1009.2
20260505162854 79 235 3.5 11.3 0.00 0.00 0.00 48 1009.1
20260505162411 78 264 2.6 11.3 0.00 0.00 0.00 48 1009.2
20260505161906 78 239 1.7 11.3 0.00 0.00 0.00 47 1009.1
20260505161342 78 243 6.1 13.0 0.00 0.00 0.00 47 1009.2
20260505160840 78 226 4.3 10.4 0.00 0.00 0.00 46 1009.2
20260505160356 77 270 2.6 10.4 0.00 0.00 0.00 49 1009.2
20260505153343 76 280 3.5 11.3 0.00 0.00 0.00 50 1009.4
20260505152838 76 225 3.5 11.3 0.00 0.00 0.00 51 1009.4
20260505152353 75 280 2.6 10.4 0.00 0.00 0.00 53 1009.4
20260505151850 75 255 5.2 10.4 0.00 0.00 0.00 50 1009.4
20260505151347 75 269 4.3 8.7 0.00 0.00 0.00 52 1009.5
20260505150903 75 242 3.5 7.0 0.00 0.00 0.00 51 1009.6
20260505150339 74 252 0.9 7.0 0.00 0.00 0.00 55 1009.6
20260505140338 70 217 2.6 6.1 0.00 0.00 0.00 60 1010.1
20260505124848 63 239 0.0 3.5 0.00 0.00 0.00 72 1010.8
20260505124343 62 233 0.0 3.5 0.00 0.00 0.00 73 1010.7
20260505123839 62 248 1.7 4.3 0.00 0.00 0.00 72 1010.7
20260505123355 61 236 1.7 4.3 0.00 0.00 0.00 73 1010.8
20260505122851 61 250 0.0 2.6 0.00 0.00 0.00 74 1010.7
20260505122351 61 250 0.0 2.6 0.00 0.00 0.00 74 1010.6
20260505121849 61 235 0.0 1.7 0.00 0.00 0.00 75 1010.5
20260505121347 60 236 0.0 0.9 0.00 0.00 0.00 76 1010.6
20260505120841 60 235 0.0 0.9 0.00 0.00 0.00 78 1010.6
20260505120338 60 235 0.0 0.9 0.00 0.00 0.00 76 1010.5
20260505115851 61 235 0.0 2.6 0.00 0.00 0.00 75 1010.4
20260505115349 61 235 0.0 2.6 0.00 0.00 0.00 75 1010.4
20260505114845 60 146 0.0 0.0 0.00 0.00 0.00 78 1010.3
20260505114340 60 146 0.0 0.0 0.00 0.00 0.00 78 1010.2
20260505113839 59 146 0.0 0.0 0.00 0.00 0.00 80 1010.2
20260505113337 58 147 0.0 0.0 0.00 0.00 0.00 81 1010.1
20260505112854 57 146 0.0 0.0 0.00 0.00 0.00 83 1010.0
20260505112351 56 147 0.0 0.0 0.00 0.00 0.00 86 1010.0
20260505111909 55 147 0.0 0.0 0.00 0.00 0.00 87 1010.1
20260505111345 54 147 0.0 0.0 0.00 0.00 0.00 91 1010.1
20260505110842 52 146 0.0 0.0 0.00 0.00 0.00 93 1010.3
20260505110338 51 146 0.0 0.0 0.00 0.00 0.00 93 1010.3
20260505101842 49 146 0.0 0.0 0.00 0.00 0.00 94 1009.6
20260505101337 49 146 0.0 0.0 0.00 0.00 0.00 94 1009.6
20260505100914 49 146 0.0 0.0 0.00 0.00 0.00 93 1009.4
20260505100349 49 146 0.0 0.0 0.00 0.00 0.00 93 1009.5
20260505095843 49 147 0.0 0.0 0.00 0.00 0.00 92 1009.5
20260505095339 50 146 0.0 0.0 0.00 0.00 0.00 91 1009.5
20260505094855 50 147 0.0 0.0 0.00 0.00 0.00 91 1009.5
20260505094353 50 146 0.0 0.0 0.00 0.00 0.00 91 1009.5
20260505093849 50 146 0.0 0.0 0.00 0.00 0.00 91 1009.4
20260505093350 50 147 0.0 0.0 0.00 0.00 0.00 90 1009.4
20260505092846 50 146 0.0 0.0 0.00 0.00 0.00 90 1009.5
20260505092343 50 147 0.0 0.0 0.00 0.00 0.00 90 1009.3
20260505091841 50 146 0.0 0.0 0.00 0.00 0.00 90 1009.3
20260505091356 50 146 0.0 0.0 0.00 0.00 0.00 89 1009.3
20260505090853 50 146 0.0 0.0 0.00 0.00 0.00 89 1009.3
20260505090351 51 147 0.0 0.0 0.00 0.00 0.00 88 1009.2
20260505085844 51 146 0.0 0.0 0.00 0.00 0.00 88 1009.2
20260505085342 51 147 0.0 0.0 0.00 0.00 0.00 88 1009.3
20260505084838 51 146 0.0 0.0 0.00 0.00 0.00 87 1009.2
20260505084353 51 146 0.0 0.0 0.00 0.00 0.00 87 1009.2
20260505083848 52 146 0.0 0.0 0.00 0.00 0.00 86 1009.1
20260505083345 52 146 0.0 0.0 0.00 0.00 0.00 86 1009.2
20260505082840 52 147 0.0 0.0 0.00 0.00 0.00 86 1009.1
20260505082336 52 147 0.0 0.0 0.00 0.00 0.00 86 1009.1
20260505081853 52 146 0.0 0.0 0.00 0.00 0.00 85 1009.1
20260505081351 52 146 0.0 0.0 0.00 0.00 0.00 85 1009.1
20260505080848 53 146 0.0 0.0 0.00 0.00 0.00 83 1009.1
20260505080348 53 146 0.0 0.0 0.00 0.00 0.00 83 1009.1
20260505075907 53 146 0.0 0.0 0.00 0.00 0.00 83 1009.1
20260505075342 53 146 0.0 0.0 0.00 0.00 0.00 83 1009.1
20260505074839 53 146 0.0 0.0 0.00 0.00 0.00 84 1009.0
20260505074357 53 147 0.0 0.0 0.00 0.00 0.00 84 1009.0
20260505073854 53 146 0.0 0.0 0.00 0.00 0.00 83 1009.0
20260505073412 53 146 0.0 0.0 0.00 0.00 0.00 84 1008.9
20260505072846 53 146 0.0 0.0 0.00 0.00 0.00 84 1008.9
20260505072342 53 146 0.0 0.0 0.00 0.00 0.00 85 1008.8
20260505071841 53 146 0.0 0.0 0.00 0.00 0.00 85 1008.9
20260505071417 53 147 0.0 0.0 0.00 0.00 0.00 85 1008.9
20260505070854 53 146 0.0 0.0 0.00 0.00 0.00 84 1008.8
20260505070412 54 146 0.0 0.0 0.00 0.00 0.00 83 1008.9
20260505065850 54 146 0.0 0.0 0.00 0.00 0.00 82 1008.9
20260505065348 54 146 0.0 0.0 0.00 0.00 0.00 81 1008.9
20260505064845 54 147 0.0 0.0 0.00 0.00 0.00 81 1009.0
20260505064343 54 147 0.0 0.0 0.00 0.00 0.00 81 1009.0
20260505063840 54 147 0.0 0.0 0.00 0.00 0.00 81 1009.1
20260505063337 54 146 0.0 0.0 0.00 0.00 0.00 81 1009.2
20260505062854 54 146 0.0 0.0 0.00 0.00 0.00 81 1009.3
20260505062353 54 146 0.0 0.0 0.00 0.00 0.00 81 1009.3
20260505061851 55 147 0.0 0.0 0.00 0.00 0.00 80 1009.3
20260505061352 55 146 0.0 0.0 0.00 0.00 0.00 78 1009.2
20260505060850 56 146 0.0 0.0 0.00 0.00 0.00 77 1009.3
20260505060347 57 146 0.0 0.0 0.00 0.00 0.00 74 1009.2
20260505055842 57 146 0.0 0.0 0.00 0.00 0.00 72 1009.2